Location: Bill Sadowski Park
(25.6087°N, 80.3181°W)
Time: 17:58:28
(UTC-04:00)

Envisat - Visible Passes

Search period start: 16 July 2018 00:00
Search period end: 26 July 2018 00:00
Orbit: 764 x 766 km, 98.2° (Epoch: 16 July)

Date Brightness Start Highest point End Pass type
(mag) Time Alt. Az. Time Alt. Az. Time Alt. Az.
16 Jul 5.6 21:53:54 10° SW 21:56:50 15° W 21:59:45 10° WNW visible
17 Jul 4.3 21:15:15 10° SSW 21:19:58 40° W 21:24:43 10° NNW visible
18 Jul 3.0 20:38:11 10° SSE 20:43:15 79° ENE 20:48:20 10° N visible
19 Jul 5.3 21:41:54 10° SW 21:45:37 20° W 21:49:20 10° NW visible
20 Jul 3.8 21:03:52 10° S 21:08:47 53° W 21:13:45 10° NNW visible
22 Jul 4.9 21:30:09 10° SSW 21:34:24 27° W 21:38:40 10° NW visible
23 Jul 3.3 20:52:35 10° S 20:57:38 71° WSW 21:02:41 10° NNW visible
24 Jul 5.7 21:57:36 10° SW 22:00:06 14° W 22:02:35 10° WNW visible
25 Jul 4.5 21:18:36 10° SSW 21:23:13 35° W 21:27:51 10° NNW visible
